COSMOS 1275 DEB

Satellite information

Favourite Embed

Satellite Type and Status

DEBRISIN ORBIT

Key statistics

Satellite COSMOS 1275 DEB at a glance.

Uptime

16263

Days in orbit

Revolutions

≈ 15.4

Per day

Orbit

LEO

Low Earth Orbit

Inclination

82.9

Latest

Satellite identification and parameters

Extended collection of information and parameters for COSMOS 1275 DEB.

Object identification

Identified? True

Debris? True

Object name: COSMOS 1275 DEB

International designator: 1981-053GG

Object number (NORAD): 13486

Object ID (CCSDS): 13486

Country: COMMONWEALTH OF INDEPENDENT STATES (CIS)

Current information (Y/N): Y

RCS size: SMALL

Orbital parameters

Period: 93.399 minutes

Inclination: 82.852 deg

SMA: 6819.005 km

Apoapsis: 450.181 km

Periapsis: 431.558 km

RAAN: 218.6471 deg

Eccentricy: 0.00136551

Argument of periapsis: 64.8956 deg

Mean anomaly: 295.3707 deg

Mean motion: 15.41775974 rev/day

Mean motion (dot): 0.00509923 rev/day2

B* drag term: 0.011279543 1/REarth

Two-line elements (TLE)

Creation date: Dec. 11, 2025, 10:54 a.m.

Reference frame: TEME

Reference center: EARTH

Epoch: Dec. 11, 2025, 3:17 a.m. UTC

TLE line 0: 0 COSMOS 1275 DEB

TLE line 1: 1 13486U 81053GG 25345.13700951 .00509923 00000-0 11280-1 0 9995

TLE line 2: 2 13486 82.8520 218.6471 0013655 64.8956 295.3707 15.41775974244762

Live tracking on map

Real-time ground track for satellite COSMOS 1275 DEB.

In-orbit conjunctions

A list of the most updated potential collisions computed for object COSMOS 1275 DEB.

Target Orbit TCA Probability of collision Miss distance Type
FENGYUN 1C DEB SSO 2024-11-12 09:20:22 0.0001101144 853.0 (m) DEBRIS
SAC C SSO 2024-06-24 19:59:05 0.0001002126 216.0 (m) PAYLOAD

Associated space launch

Navigation satellite providing location information for the Tsiklon-B navigation system

COSMOS 1275 DEB was lifted into orbit during the mission ‘Kosmos-3M | Parus 27’, on board a Kosmos-3M space rocket.

The launch took place on June 4, 1981, 3:41 p.m. from 132/2.

For more information about the launch, click the button.

Launch to space Kosmos-3M | Parus 27
Kosmos-3M | Parus 27

Agency: N/A

Status: Launch Successful

Launch date: June 4, 1981, 3:41 p.m. UTC

Rocket: Kosmos-3M

Launch pad: 132/2

Location: Plesetsk Cosmodrome, Russian Federation

...

Latest news about this satellite

There are no fresh news available about this satellite. Check back as we update our databases every day.


Newsletter sign-up

Weekly statistics, charts and insights to help you stay on top of the space industry.